Preview of NWS' New Version of Forecast
This preview is not operational and should not be used for support decisions.

Regional Weather Roundup (RWR)

Issued by Charleston, SC (CHS)

                            
000
ASUS42 KCHS 200927
RWRCHS

Regional Weather Roundup
National Weather Service Charleston SC
400 AM EST WED FEB 20 2019

NOTE: "fair" indicates few or no clouds below 12,000 feet with no
significant weather and/or obstructions to visibility.

Not all stations are quality controlled. Use data with caution,
especially dewpoint observations.

SCZ027-030-031-034>040-042>050-201000-
...Southeast South Carolina...
  
CITY           SKY/WX    TMP DP  RH WIND       PRES   REMARKS
N Charleston   RAIN      47  43  86 E13       30.28F FOG              
Waterfront Prk   N/A     49  46  89 NE13G23   30.15F                  
Mount Pleasant CLOUDY    48  46  93 E6        30.28F FOG              
Johns Island   CLOUDY    50  48  93 NE16G26   30.26F FOG              
Pinopolis        N/A     43  39  87 E12       30.24F                  
Moncks Corner  RAIN      43  41  93 E8        30.28F                  
Summerville    DRIZZLE   41  41 100 E5        30.29F                  
Beaufort MCAS  LGT RAIN  50  48  93 NE12G18   30.24F                  
Beaufort Arpt  CLOUDY    50  46  87 NE17G23   30.23F FOG              
Hilton Head Is DRIZZLE   52  50  93 NE12G24   30.23F                  
Walterboro     LGT RAIN  43  41  93 NE8       30.27F                  
Allendale      CLOUDY    45  41  87 E9        30.26F                  

...Southern Midlands and Pee Dee...
  
CITY           SKY/WX    TMP DP  RH WIND       PRES   REMARKS
Georgetown     DRIZZLE   45  41  87 NE8       30.33F                  
Kingstree      LGT RAIN  39  37  93 NE7       30.32F WCI  34          
Orangeburg     CLOUDY    44  36  73 E7        30.29F                  
Barnwell       LGT RAIN  45  39  81 NE8       30.28F                  
Aiken          CLOUDY    39  37  93 NE7       30.31F WCI  34          
Manning        DRIZZLE   41  37  87 E6        30.30F                  
Columbia       CLOUDY    42  39  89 NE8       30.32F                  
Sumter         CLOUDY    41  36  81 NE10      30.32F                  
Florence       CLOUDY    39  37  92 E9        30.37S WCI  33          
Myrtle Beach   CLOUDY    43  34  70 NE12G18   30.35F                  
N Myrtle Beach CLOUDY    41  33  73 NE13      30.34F                  

$$
 
GAZ063-065-086>088-099>101-113>116-118-119-134>141-150-201000-
...Southeast Georgia...
  
CITY           SKY/WX    TMP DP  RH WIND       PRES   REMARKS
Savannah Arpt  CLOUDY    48  47  96 NE7       30.23F FOG              
Hunter AAF     LGT RAIN  52  50  93 NE9       30.19                   
Fort Stewart   LGT RAIN  48  47  96 NE7       30.20F                  
Statesboro     MIX PCPN  45  43  93 E7        30.23F                  
Sylvania       CLOUDY    45  44  94 E6        30.25F                  
Claxton        CLOUDY    47  46  93 NE10      30.22F                  

...CSRA, Central and far Southeast Georgia...
  
CITY           SKY/WX    TMP DP  RH WIND       PRES   REMARKS
Thomson        CLOUDY    41  37  86 SE6       30.33F                  
Augusta-Bush   CLOUDY    46  37  71 NE6       30.29F                  
Augusta-Daniel CLOUDY    45  35  68 NE9       30.28F                  
Swainsboro     CLOUDY    43  43 100 E6        30.24F                  
Vidalia        CLOUDY    46  43  87 E10       30.21F                  
Eastman        CLOUDY    45  43  95 E8        30.23F                  
Hazlehurst     CLOUDY    48  44  88 NE5       30.18F                  
Alma           CLOUDY    50  46  86 VRB5      30.19F                  
Waycross       CLOUDY    52  48  84 E9        30.17F                  
Jesup          CLOUDY    54  48  82 E5        30.19F                  
Baxley         CLOUDY    46  46 100 E7        30.18F                  
Brunswick      CLOUDY    54  54 100 NE12G23   30.18F                  
Saint Simons   CLOUDY    57  54  89 N16G25    30.16F                  

$$

SCZ027-028-034-036>038-045-046-048>050-GAZ119-141-201000-
...Lake and Supplemental Coastal Observations...
  
STATION/POSITION TIME  TEMP    WIND        PRES    WAVE   SWELL
                       AIR SEA DIR/SP/G            HT/PER HT/PER/DIR
                 (UTC) (F)     (DEG/KT/KT) (MB)    (FT/S) (FT/S/D)
Winyah Bay       0845   45      60/ 17     1026.0F
Lake Murray      0820   40      30/  3/  7 1026.4
ACE Basin NERRS  0845   50      40/  6     1025.0F
Fort Pulaski     0900   54 56   60/ 22/ 29 1023.1
Sapelo Island    0800   54      40/ 17     1023.0

$$

ANZ835-935-AMZ111-154-330-350-352-354-370-450-454-472-201000-
...C-MAN and Buoy Observations...
  
STATION/POSITION TIME  TEMP    WIND        PRES    WAVE   SWELL
                       AIR SEA DIR/SP/G            HT/PER HT/PER/DIR
                 (UTC) (F)     (DEG/KT/KT) (MB)    (FT/S) (FT/S/D)
Buoy 41004       0910      69   90/ 25/ 29 1024.4
Buoy 41008       0850   62 58  340/  2/  8 1021.3F   8/ 7   8/ 80/ 7
Folly Beach CMAN 0900   52      50/ 23/ 27 1025.4F
Capers Nearshore 0908   53 55   50/ 23/ 33 1024.7F
Fripp Nearshore  0908   54      60/ 21/ 29 1022.8F

  
STATION/POSITION TIME  TEMP    WIND        PRES    WAVE   SWELL
                       AIR SEA DIR/SP/G            HT/PER HT/PER/DIR
                 (UTC) (F)     (DEG/KT/KT) (MB)    (FT/S) (FT/S/D)
5E St. Marys GA  0900      59                N/A     6/ 9   2/ 70/11
Frying Pan Buoy  0910   63 63   80/ 19/ 25 1027.2
Buoy 41025       NOT AVBL
Cape Lookout NC  0900           20/ 18/ 22 1030.2F
Buoy 41002       NOT AVBL
Buoy 41010       0910   75 75  130/ 17/ 23 1021.7
St Augustine FL  0900   60 61  350/ 12/ 12 1020.3F


$$